Regional Weather Roundup
Issued by NWS

Home | Current Version | Previous Version | Graphics & Text | Print | Product List | Glossary On
Versions: 1 2 3 4 5 6 7 8 9 10 11 12 13 14 15 16 17 18 19 20 21 22 23 24 25 26 27 28 29 30 31 32 33 34 35 36 37 38 39 40 41 42 43 44 45 46 47 48 49 50
000
ASUS43 KBIS 240510
RWRND

NORTH DAKOTA REGIONAL WEATHER ROUNDUP
NATIONAL WEATHER SERVICE BISMARCK ND
1200 AM CDT SAT SEP 24 2016

NOTE: "FAIR" INDICATES FEW OR NO CLOUDS BELOW 12,000 FEET WITH NO
SIGNIFICANT WEATHER AND/OR OBSTRUCTIONS TO VISIBILITY.


NDZ001>003-009>011-017-240600-
NORTHWEST NORTH DAKOTA

CITY           SKY/WX    TMP DP  RH WIND       PRES   REMARKS
WILLISTON      CLOUDY    56  54  93 CALM      29.85S FOG
MINOT          CLOUDY    59  58  96 E9        29.84S FOG
MINOT AFB      CLOUDY    58  57  99 E10       29.83F FOG
$$

NDZ018>021-031>035-040>046-240600-
SOUTHWEST NORTH DAKOTA

CITY           SKY/WX    TMP DP  RH WIND       PRES   REMARKS
BISMARCK       CLOUDY    62  62 100 E8        29.78F
DICKINSON      RAIN      56  56 100 CALM      29.82F
GARRISON         N/A     59  59 100 SE14      29.81F
HETTINGER ARPT RAIN      59  58  96 NE17      29.78F FOG
$$

NDZ004>008-012>016-024-026-027-054-240600-
NORTHEAST NORTH DAKOTA

CITY           SKY/WX    TMP DP  RH WIND       PRES   REMARKS
GRAND FORKS    CLOUDY    60  56  86 CALM      29.97R
GRND FRKS AFB  LGT RAIN  59  57  94 SE10      29.96S
DEVILS LAKE    RAIN      58  57  97 SE22      29.90S FOG
$$

NDZ022-023-025-028>030-036>039-047>053-240600-
SOUTHEAST NORTH DAKOTA

CITY           SKY/WX    TMP DP  RH WIND       PRES   REMARKS
FARGO          CLOUDY    64  60  87 SE17G24   29.93F
JAMESTOWN      CLOUDY    64  63  96 SE12      29.89R
$$





USA.gov is the U.S. government's official web portal to all federal, state and local government web resources and services.